2019-036U (44357 NORAD) Tracking and Keplerian Element Data

This shows tracking and keplerian element data for the satellite.

Feedback or suggestion? Click here.




ElementValue
Catalog44357
Name2019-036U
Epoch Orbit383
Epoch Day201.91867924
Epoch Year2019
RAAN34.1717
Inclination28.5316
Eccentricity0.0389463
Argument of Perigee16.2939
Mean Anonmoly344.9795
Mean Motion14.97516252
Decay Rate5.165E-05
L11 44357U 19036U 19201.91867924 .00005165 00000-0 75519-4 0 9999
L22 44357 28.5316 34.1717 0389463 16.2939 344.9795 14.97516252 3833

Live tracking and technical data element details for 2019-036U (NORAD 44357). 2019-036U can be tracked NOW for your location showing map with azimuth and elevation plus other details from your city location.

Track the satellite on the map from your city or location and see movement details for azimuth, elevation, latitude, longitude, range, height, and movement on the map or in text.







IsCatalogInMostPopularTable: catalog: 44357, numindb: 6
Update: records affected: 1



GetName: 44357 2019-036U

Hit Count: updated at: Sun, 21 Jul 2019 21:06:27 GMT